Weather in Agstafa

Azerbaijan     41°07′03″N   45°27′07″E
temp.,
°C
wind,
m/s
gust,
m/s
humid.,
%
clouds,
%
prec.,
mm/h
press.,
hPa
HPBL,
m
19 january, tue
tue1901:00+2wsw257782 0.1 1013271
04:00+1wsw368591 2.1 1015403
07:000wnw176996 0.4 1018346
10:00+1sw136295 0.4 1018282
13:00+2nnw2351100 0.0 1018722
16:00+1sw2269100 0.9 1015454
19:00−1ssw4480100 0.8 1019144
22:000ssw3473100 1.1 1020124
20 january, wed
wed2001:00−1sw236798 0.0 102176
04:00−2wsw236899 0.0 102064
07:00−2sw237396 0.0 102062
10:00−1wnw236697 0.0 1020269
13:00+1nw346499 0.1 1019729
16:00+1nw345299 0.1 1018906
19:000sw236199 0.0 1022128
22:00−1wsw3562100 0.0 1023166
21 january, thu
thu2101:00−2wsw5755100 0.0 1025221
04:00−3sw445471 0.0 102670
07:00−4sw55480 0.0 102887
10:00−2sw44420 0.0 1030212
13:00+1nw34340 0.0 10311205
16:00+2nw253210 0.0 10311834
19:00−2ssw33517 0.0 103545
22:00−3sw444910 0.0 103768
22 january, fri
fri2201:00−4sw33450 0.0 103960
04:00−4sw33430 0.0 104054
07:00−4sw33440 0.0 103948
10:00−2sw12400 0.0 1039158
13:00+1nne21340 0.0 1036496
16:00+1ene11360 0.0 1034412
19:00−2sw22500 0.0 103624
22:00−2sw22444 0.0 103638
23 january, sat
sat2301:00−2sw224493 0.0 103532
04:00−2sw224396 0.0 103431
07:00−2sw2239100 0.0 103330
10:00+1wsw123461 0.0 103395
13:00+4n21300 0.0 1029285
16:00+4ene11350 0.0 1028184
19:00+1ssw22480 0.0 102925
22:00+1ssw124333 0.0 103026